EST,Max TemperatureF,Mean TemperatureF,Min TemperatureF,Max Dew PointF,MeanDew PointF,Min DewpointF,Max Humidity, Mean Humidity, Min Humidity, Max Sea Level PressureIn, Mean Sea Level PressureIn, Min Sea Level PressureIn, Max VisibilityMiles, Mean VisibilityMiles, Min VisibilityMiles, Max Wind SpeedMPH, Mean Wind SpeedMPH, Max Gust SpeedMPH,PrecipitationIn, CloudCover, Events, WindDirDegrees
2013-2-1,23,20,17,16,12,7,93,73,55,30.25,30.00,29.72,10,8,1,17,6,25,0.00,7,Snow,302
2013-2-2,21,16,12,15,8,3,88,67,55,30.25,30.12,30.01,10,10,4,18,5,25,0.00,6,Snow,176
2013-2-3,26,19,12,19,14,8,93,80,58,30.01,29.86,29.75,10,6,1,10,4,,0.00,8,Snow,318
2013-2-4,21,19,17,17,14,8,93,81,60,30.01,29.94,29.85,10,5,1,10,1,,0.03,8,Snow,313
2013-2-5,28,22,17,20,17,14,96,79,61,29.98,29.93,29.86,10,8,4,8,1,,0.00,7,Snow,146
2013-2-6,28,22,14,25,15,8,93,69,47,30.41,30.18,29.87,10,9,2,14,5,26,0.00,5,Snow,306
2013-2-7,35,22,10,20,14,7,84,63,48,30.45,30.32,30.10,10,10,10,13,8,20,0.00,7,,133
2013-2-8,39,29,19,35,25,16,93,83,56,30.09,29.91,29.73,10,6,1,26,14,32,0.10,8,Rain-Snow,290
2013-2-9,21,16,9,16,13,5,88,81,71,30.48,30.33,30.06,10,6,2,17,12,22,0.00,6,Snow,321
2013-2-10,42,24,5,22,12,0,84,61,45,30.46,30.30,30.05,10,10,10,16,10,22,0.00,2,,136
2013-2-11,55,46,37,40,30,20,79,65,46,30.02,29.77,29.60,10,10,5,16,10,29,0.01,7,Rain,161
2013-2-12,37,34,32,25,23,19,66,63,59,30.02,29.91,29.77,10,10,10,14,9,28,0.00,8,,280
2013-2-13,42,34,26,26,23,20,86,66,45,29.95,29.84,29.73,10,10,7,13,2,,0.00,4,,313
2013-2-14,45,34,24,35,27,21,89,76,45,29.97,29.88,29.80,10,9,8,13,3,,0.02,6,Rain,158
2013-2-15,41,34,27,34,23,16,89,62,52,30.09,29.98,29.83,10,10,9,12,6,20,0.00,7,Snow,282
2013-2-16,30,27,23,18,12,7,75,57,38,30.10,30.02,29.94,10,10,9,10,6,16,0.00,7,,313
2013-2-17,19,16,12,18,11,2,93,76,54,30.24,29.98,29.88,10,6,0,20,8,28,0.01,7,Fog-Snow,317
2013-2-18,37,24,10,17,9,2,79,55,31,30.34,30.20,29.98,10,10,10,13,4,,0.00,2,,136
2013-2-19,44,35,26,36,27,14,93,72,45,29.96,29.71,29.55,10,8,2,16,10,25,0.19,7,Rain-Snow,180
2013-2-20,24,22,19,19,13,10,93,70,55,30.12,29.92,29.78,10,6,0,17,7,28,0.01,8,Fog-Snow,290
2013-2-21,24,21,18,16,12,9,86,71,60,30.46,30.23,30.07,10,8,2,17,11,25,0.00,8,Snow,317
2013-2-22,36,28,21,25,21,16,86,71,56,30.43,30.23,30.06,10,10,10,17,8,25,0.00,6,,145
2013-2-23,41,36,32,32,28,24,85,76,67,30.07,29.95,29.86,10,9,2,13,8,16,0.00,8,Snow,128
2013-2-24,34,32,30,25,23,19,79,70,54,30.11,29.96,29.86,10,9,3,12,4,21,0.00,8,Snow,297
2013-2-25,37,32,24,25,22,19,81,69,48,30.27,30.20,30.09,10,10,6,6,3,,0.00,7,,349
2013-2-26,43,32,21,33,26,17,96,75,49,30.27,30.03,29.79,10,8,2,18,8,28,0.34,4,Rain-Snow,142
2013-2-27,37,35,33,36,34,30,100,94,79,29.78,29.62,29.55,10,6,0,16,5,24,0.24,8,Fog-Rain-Snow,293
2013-2-28,39,36,33,34,32,30,100,88,75,29.74,29.61,29.54,10,7,2,9,2,,0.03,8,Snow,334